Meteo pe oră la Dachnoe

Astăzi, 10 Aprilie, Sâmbătă

Timp Temperatura Precipitaţii Vânt Presiune Umiditate
00:00 +1°C° 0 mm 4 m/s 753 mmHg 72%
01:00 +1°C° 0 mm 4 m/s 753 mmHg 72%
02:00 +1°C° 0 mm 4 m/s 753 mmHg 71%
03:00 0°C° 0 mm 4 m/s 753 mmHg 71%
04:00 0°C° 0 mm 4 m/s 753 mmHg 71%
05:00 0°C° 0 mm 4 m/s 753 mmHg 71%
06:00 +1°C° 0 mm 5 m/s 753 mmHg 68%
07:00 +2°C° 0 mm 5 m/s 753 mmHg 65%
08:00 +3°C° 0 mm 6 m/s 753 mmHg 60%
09:00 +5°C° 0 mm 6 m/s 753 mmHg 54%
10:00 +6°C° 0 mm 7 m/s 753 mmHg 47%
11:00 +9°C° 0 mm 7 m/s 753 mmHg 41%
12:00 +10°C° 0 mm 7 m/s 753 mmHg 40%
13:00 +11°C° 0 mm 7 m/s 752 mmHg 38%
14:00 +11°C° 0 mm 7 m/s 752 mmHg 37%
15:00 +11°C° 0 mm 6 m/s 752 mmHg 39%
16:00 +12°C° 0 mm 5 m/s 752 mmHg 42%
17:00 +12°C° 0 mm 5 m/s 752 mmHg 44%
18:00 +10°C° 0 mm 4 m/s 752 mmHg 51%
19:00 +8°C° 0 mm 4 m/s 752 mmHg 58%
20:00 +7°C° 0 mm 3 m/s 753 mmHg 65%
21:00 +7°C° 0 mm 3 m/s 753 mmHg 66%
22:00 +5°C° 0 mm 4 m/s 753 mmHg 67%
23:00 +5°C° 0 mm 4 m/s 753 mmHg 69%

Mâine, 11 Aprilie, Duminică

Timp Temperatura Precipitaţii Vânt Presiune Umiditate
00:00 +5°C° 0 mm 4 m/s 754 mmHg 70%
01:00 +4°C° 0 mm 4 m/s 754 mmHg 71%
02:00 +4°C° 0 mm 4 m/s 754 mmHg 72%
03:00 +4°C° 0 mm 3 m/s 754 mmHg 73%
04:00 +3°C° 0 mm 3 m/s 754 mmHg 75%
05:00 +3°C° 0 mm 3 m/s 755 mmHg 76%
06:00 +4°C° 0 mm 3 m/s 755 mmHg 71%
07:00 +7°C° 0 mm 3 m/s 755 mmHg 65%
08:00 +7°C° 0 mm 4 m/s 756 mmHg 60%
09:00 +10°C° 0 mm 4 m/s 756 mmHg 55%
10:00 +12°C° 0 mm 4 m/s 756 mmHg 50%
11:00 +14°C° 0 mm 4 m/s 756 mmHg 44%
12:00 +15°C° 0 mm 4 m/s 756 mmHg 42%
13:00 +15°C° 0 mm 4 m/s 756 mmHg 41%
14:00 +17°C° 0 mm 4 m/s 756 mmHg 39%
15:00 +17°C° 0 mm 4 m/s 756 mmHg 41%
16:00 +15°C° 0 mm 4 m/s 756 mmHg 42%
17:00 +16°C° 0 mm 3 m/s 756 mmHg 44%
18:00 +13°C° 0 mm 3 m/s 757 mmHg 50%
19:00 +11°C° 0 mm 3 m/s 757 mmHg 56%
20:00 +9°C° 0 mm 3 m/s 757 mmHg 61%
21:00 +9°C° 0 mm 3 m/s 757 mmHg 63%
22:00 +8°C° 0 mm 3 m/s 757 mmHg 64%
23:00 +7°C° 0 mm 3 m/s 757 mmHg 66%

Poimâine, 12 Aprilie, Luni

Timp Temperatura Precipitaţii Vânt Presiune Umiditate
00:00 +7°C° 0 mm 2 m/s 757 mmHg 67%
01:00 +6°C° 0 mm 2 m/s 757 mmHg 68%
02:00 +6°C° 0 mm 2 m/s 757 mmHg 70%
03:00 +5°C° 0 mm 2 m/s 757 mmHg 71%
04:00 +5°C° 0 mm 2 m/s 757 mmHg 72%
05:00 +4°C° 0 mm 2 m/s 757 mmHg 74%
06:00 +6°C° 0 mm 2 m/s 757 mmHg 69%
07:00 +7°C° 0 mm 3 m/s 757 mmHg 64%
08:00 +9°C° 0 mm 3 m/s 756 mmHg 60%
09:00 +10°C° 0 mm 4 m/s 756 mmHg 53%
10:00 +12°C° 0 mm 4 m/s 756 mmHg 47%
11:00 +13°C° 0 mm 4 m/s 755 mmHg 41%
12:00 +14°C° 0 mm 4 m/s 755 mmHg 38%
13:00 +15°C° 0 mm 4 m/s 754 mmHg 36%
14:00 +16°C° 0 mm 3 m/s 754 mmHg 33%
15:00 +16°C° 0 mm 3 m/s 753 mmHg 36%
16:00 +14°C° 0 mm 3 m/s 753 mmHg 39%
17:00 +14°C° 0 mm 3 m/s 753 mmHg 43%
18:00 +12°C° 0 mm 3 m/s 753 mmHg 50%
19:00 +11°C° 0 mm 3 m/s 753 mmHg 56%
20:00 +9°C° 0 mm 3 m/s 753 mmHg 63%
21:00 +9°C° 0 mm 3 m/s 753 mmHg 72%
22:00 +8°C° 0 mm 2 m/s 753 mmHg 80%
23:00 +7°C° 0 mm 2 m/s 752 mmHg 88%

13 Aprilie, Marţi

Timp Temperatura Precipitaţii Vânt Presiune Umiditate
00:00 +7°C° 0 mm 2 m/s 752 mmHg 90%
01:00 +7°C° 0 mm 2 m/s 752 mmHg 91%
02:00 +6°C° 0 mm 2 m/s 752 mmHg 93%
03:00 +7°C° 0 mm 1 m/s 752 mmHg 93%
04:00 +7°C° 0 mm 1 m/s 752 mmHg 93%
05:00 +7°C° 0 mm 1 m/s 751 mmHg 93%
06:00 +8°C° 0 mm 1 m/s 751 mmHg 88%
07:00 +10°C° 0 mm 1 m/s 751 mmHg 83%
08:00 +10°C° 0 mm 2 m/s 751 mmHg 79%
09:00 +13°C° 0 mm 2 m/s 751 mmHg 73%
10:00 +14°C° 0 mm 2 m/s 751 mmHg 68%
11:00 +16°C° 0 mm 2 m/s 751 mmHg 62%
12:00 +16°C° 0 mm 2 m/s 750 mmHg 60%
13:00 +17°C° 0 mm 2 m/s 750 mmHg 58%
14:00 +18°C° 0 mm 2 m/s 750 mmHg 57%
15:00 +17°C° 0 mm 3 m/s 750 mmHg 59%
16:00 +17°C° 0 mm 3 m/s 749 mmHg 61%
17:00 +17°C° 0 mm 3 m/s 749 mmHg 64%
18:00 +14°C° 0 mm 3 m/s 749 mmHg 72%
19:00 +13°C° 0 mm 3 m/s 749 mmHg 80%
20:00 +11°C° 0 mm 3 m/s 749 mmHg 87%
21:00 +12°C° 0 mm 2 m/s 749 mmHg 89%
22:00 +10°C° 0 mm 2 m/s 749 mmHg 91%
23:00 +9°C° 0 mm 2 m/s 749 mmHg 93%

14 Aprilie, Miercuri

Timp Temperatura Precipitaţii Vânt Presiune Umiditate
00:00 +9°C° 0 mm 2 m/s 749 mmHg 94%
01:00 +9°C° 0 mm 2 m/s 748 mmHg 94%
02:00 +9°C° 0 mm 2 m/s 748 mmHg 94%
03:00 +9°C° 0 mm 2 m/s 748 mmHg 94%
04:00 +9°C° 0 mm 2 m/s 748 mmHg 95%
05:00 +9°C° 0 mm 2 m/s 748 mmHg 95%
06:00 +10°C° 0.1 mm 2 m/s 748 mmHg 92%
07:00 +10°C° 0.1 mm 3 m/s 748 mmHg 90%
08:00 +11°C° 0.1 mm 3 m/s 747 mmHg 87%
09:00 +11°C° 0 mm 4 m/s 747 mmHg 83%
10:00 +12°C° 0 mm 4 m/s 747 mmHg 79%
11:00 +12°C° 0 mm 4 m/s 747 mmHg 75%
12:00 +12°C° 0 mm 4 m/s 747 mmHg 75%
13:00 +12°C° 0 mm 4 m/s 747 mmHg 74%
14:00 +12°C° 0 mm 4 m/s 747 mmHg 74%
15:00 +12°C° 0.1 mm 3 m/s 747 mmHg 73%
16:00 +12°C° 0.1 mm 3 m/s 746 mmHg 73%
17:00 +12°C° 0.1 mm 3 m/s 746 mmHg 73%
18:00 +12°C° 0 mm 3 m/s 746 mmHg 76%
19:00 +11°C° 0 mm 3 m/s 746 mmHg 79%
20:00 +10°C° 0 mm 3 m/s 746 mmHg 82%
21:00 +10°C° 0 mm 2 m/s 746 mmHg 82%
22:00 +10°C° 0 mm 2 m/s 746 mmHg 81%
23:00 +10°C° 0 mm 2 m/s 746 mmHg 80%

15 Aprilie, Joi

Timp Temperatura Precipitaţii Vânt Presiune Umiditate
00:00 +9°C° 0 mm 2 m/s 746 mmHg 80%
01:00 +9°C° 0 mm 2 m/s 746 mmHg 80%
02:00 +9°C° 0 mm 2 m/s 746 mmHg 80%
03:00 +9°C° 0 mm 2 m/s 746 mmHg 80%
04:00 +9°C° 0 mm 2 m/s 746 mmHg 80%
05:00 +9°C° 0 mm 2 m/s 746 mmHg 80%
06:00 +9°C° 0 mm 2 m/s 746 mmHg 80%
07:00 +10°C° 0 mm 2 m/s 746 mmHg 79%
08:00 +10°C° 0 mm 2 m/s 746 mmHg 79%
09:00 +12°C° 0 mm 2 m/s 746 mmHg 74%
10:00 +13°C° 0 mm 3 m/s 746 mmHg 69%
11:00 +14°C° 0 mm 3 m/s 746 mmHg 64%
12:00 +14°C° 0.4 mm 3 m/s 746 mmHg 61%
13:00 +16°C° 0.4 mm 3 m/s 745 mmHg 59%
14:00 +17°C° 0.4 mm 4 m/s 745 mmHg 56%
15:00 +15°C° 0.7 mm 4 m/s 745 mmHg 59%
16:00 +15°C° 0.7 mm 4 m/s 745 mmHg 63%
17:00 +14°C° 0.7 mm 4 m/s 745 mmHg 67%
18:00 +13°C° 0.6 mm 5 m/s 745 mmHg 73%
19:00 +12°C° 0.6 mm 5 m/s 745 mmHg 79%
20:00 +10°C° 0.6 mm 5 m/s 745 mmHg 85%
21:00 +9°C° 0.7 mm 6 m/s 745 mmHg 87%
22:00 +9°C° 0.7 mm 6 m/s 745 mmHg 89%
23:00 +8°C° 0.7 mm 6 m/s 745 mmHg 90%
Arată mai mult

Formular de consimțământ

Meteoprog și furnizorii noștri de servicii pot stoca și accesa date personale, precum cookies, identificatori de dispozitiv sau alte tehnologii similare pe dispozitivul dumneavoastră și procesa astfel de date pentru a personaliza conținutul și reclamele, dar și pentru a oferi caracteristici de social media și pentru a analiza traficul.

  • Stocarea și/sau accesarea informațiilor pe dispozitivul dumneavoastră

    Cookies, identificatori de dispozitiv sau alte informații pot fi stocate sau accesate pe dispozitiv în scopurile indicate mai sus.

  • Reclame și conținut personalizat, evaluarea reclamelor și a conținutului, informații despre audiențe și dezvoltarea produselor

    Reclamele și conținutul pot fi personalizate pe baza unui profil. Pot fi adăugate date suplimentare pentru a personaliza mai bine reclamele și conținutul. Performanța reclamelor și conținutului poate fi măsurată. Pot fi obținute informații despre utilizatorii care au văzut reclamele și conținutul. Aceste date pot fi utilizate pentru a dezvolta sau îmbunătăți experiența utilizatorilor, sistemele și software-ul.

Dând clic pe ‘Sunt de acord’, permiteți utilizarea cookie-urilor menționate, a identificatorilor de dispozitiv, balizelor web sau altor tehnologii similare. Setările pot fi modificate din browser-ul dispozitivului dumneavoastră.

În anumite scopuri, interesele legitime pot prima asupra consimțământului. Puteți citi mai multe informații în acest sens în Politica privind Confidențialitatea Datelor și Cookie.